Location: ??????
(55.2000°N, 38.3000°E)
Time: 00:44:35
(UTC+00:00)

Cosmos 1452 Rocket - Pass Details

Date: 15 November 2025
Orbit: 763 x 770 km, 74.1° (Epoch: 12 December)

Event Time Altitude Azimuth Distance (km) Brightness Sun altitude
Rises 03:10:29 0° 187° (S) 3,217 6.8 -15.2°
Reaches altitude 10° 03:12:54 10° 183° (S) 2,295 6.1 -14.9°
Maximum altitude 03:17:55 50° 109° (ESE) 968 4.5 -14.2°
Drops below altitude 10° 03:22:58 10° 35° (NE) 2,312 6.3 -13.5°
Sets 03:25:24 0° 30° (NNE) 3,243 7.0 -13.2°
